FW8889 Weather Reports


time (UTC)temp
F
wind
direction
speed
knots
gust
knots
rain 1hr
in
rain 24hr
in
rain mn
in
humidity
%
barometer
mb
20260507101552 49 0 0.9 4.3 0.00 0.25 0.04 85 1008.2
20260507100053 49 0 0.0 2.6 0.00 0.25 0.04 86 1007.7
20260507094549 49 0 0.0 2.6 0.00 0.25 0.04 85 1008.0
20260507093054 49 0 0.0 1.7 0.00 0.25 0.04 84 1007.9
20260507091549 49 179 0.0 2.6 0.00 0.25 0.04 84 1008.2
20260507090046 49 0 0.0 3.5 0.00 0.25 0.04 82 1008.1
20260507084551 49 29 1.7 7.8 0.01 0.25 0.04 81 1007.7
20260507083049 50 59 0.0 1.7 0.01 0.25 0.04 86 1007.7
20260507081551 50 0 0.0 2.6 0.01 0.25 0.04 86 1007.8
20260507080050 51 0 0.9 7.8 0.01 0.25 0.04 85 1008.1
20260507074600 51 129 0.9 3.5 0.00 0.24 0.03 85 1008.1
20260507073043 51 39 0.0 2.6 0.00 0.24 0.03 86 1007.5
20260507071550 51 0 0.0 4.3 0.00 0.24 0.03 85 1007.4
20260507070048 51 0 0.0 3.5 0.00 0.24 0.03 85 1007.1
20260507064548 51 0 0.0 1.7 0.00 0.24 0.03 84 1007.2
20260507063049 51 305 0.0 2.6 0.00 0.24 0.03 84 1007.0
20260507061545 51 61 0.9 3.5 0.00 0.24 0.03 84 1007.0
20260507060043 52 36 0.0 7.0 0.00 0.24 0.03 84 1007.1
20260507054623 53 340 0.0 5.2 0.00 0.24 0.03 86 1007.5
20260507053052 53 350 0.9 3.5 0.00 0.24 0.03 87 1007.1
20260507051549 54 340 0.0 3.5 0.02 0.24 0.03 87 1007.5
20260507050055 54 0 0.0 4.3 0.03 0.24 0.03 87 1007.6
20260507044553 56 275 0.9 4.3 0.03 0.24 0.03 87 1007.3
20260507043054 57 0 0.9 4.3 0.03 0.24 0.03 87 1007.0
20260507041556 58 344 0.9 3.5 0.01 0.22 0.01 87 1007.3
20260507040050 58 114 0.0 3.5 0.00 0.21 0.00 86 1007.1
20260507034555 59 75 0.0 2.6 0.00 0.21 0.21 86 1006.6
20260507033056 59 70 0.0 2.6 0.00 0.21 0.21 86 1006.5
20260507031604 59 242 1.7 7.0 0.00 0.21 0.21 86 1006.2
20260507030054 59 137 0.0 2.6 0.00 0.21 0.21 86 1006.1
20260507024552 59 204 0.0 3.5 0.00 0.21 0.21 86 1006.1
20260507023059 59 0 0.9 4.3 0.00 0.21 0.21 86 1006.2
20260507021550 59 0 0.0 3.5 0.00 0.21 0.21 86 1006.1
20260507020055 59 160 0.9 4.3 0.00 0.21 0.21 86 1006.2
20260507014551 59 281 0.9 5.2 0.00 0.21 0.21 86 1006.5
20260507013046 59 0 0.9 4.3 0.00 0.21 0.21 86 1006.5
20260507011549 59 132 0.0 3.5 0.00 0.21 0.21 86 1006.5
20260507010050 59 0 0.9 3.5 0.01 0.21 0.21 86 1006.5
20260507004551 59 158 0.9 2.6 0.01 0.21 0.21 86 1006.5
20260507003052 59 261 0.9 5.2 0.02 0.21 0.21 86 1006.6
20260507001555 59 0 0.9 4.3 0.07 0.21 0.21 86 1006.4
20260507000044 59 40 0.0 3.5 0.06 0.20 0.20 86 1006.2
20260506234549 59 263 0.0 3.5 0.06 0.20 0.20 86 1006.3
20260506233102 60 0 0.9 3.5 0.06 0.19 0.19 86 1006.2
20260506231546 60 246 0.9 4.3 0.01 0.14 0.14 86 1006.4
20260506230051 60 309 0.9 4.3 0.01 0.14 0.14 86 1006.6
20260506224548 60 163 1.7 4.3 0.01 0.14 0.14 86 1006.6
20260506223049 60 311 0.9 6.1 0.01 0.13 0.13 86 1006.6
20260506221548 60 136 0.9 5.2 0.02 0.13 0.13 86 1006.6
20260506220051 60 306 0.9 4.3 0.03 0.13 0.13 86 1006.6
20260506214552 60 155 0.9 6.1 0.04 0.13 0.13 86 1006.8
20260506213107 60 294 0.0 3.5 0.05 0.12 0.12 86 1007.2
20260506211549 61 52 0.9 4.3 0.06 0.11 0.11 86 1007.2
20260506210056 61 311 0.0 3.5 0.07 0.10 0.10 86 1007.3
20260506204549 62 274 0.9 3.5 0.07 0.09 0.09 85 1007.5
20260506203050 62 175 0.0 4.3 0.06 0.07 0.07 84 1007.4
20260506201550 63 320 0.9 1.7 0.05 0.05 0.05 83 1007.2
20260506200048 64 149 0.9 5.2 0.03 0.03 0.03 81 1007.2
20260506194555 65 355 0.0 4.3 0.02 0.02 0.02 80 1007.3
20260506193047 66 326 0.9 5.2 0.01 0.01 0.01 76 1007.4
20260506191545 67 291 1.7 7.0 0.00 0.00 0.00 71 1007.4
20260506190057 69 0 1.7 4.3 0.00 0.00 0.00 66 1007.5
20260506184549 70 44 1.7 9.6 0.00 0.00 0.00 61 1007.4
20260506183050 71 281 1.7 4.3 0.00 0.00 0.00 60 1007.4
20260506181549 72 287 1.7 10.4 0.00 0.00 0.00 58 1007.3
20260506180058 72 217 2.6 7.0 0.00 0.00 0.00 57 1007.6
20260506174554 72 166 2.6 8.7 0.00 0.00 0.00 57 1007.7
20260506173043 72 167 2.6 8.7 0.00 0.00 0.00 58 1007.7
20260506171556 72 197 2.6 8.7 0.00 0.00 0.00 58 1008.0
20260506170103 72 140 1.7 7.8 0.00 0.00 0.00 58 1008.1
20260506164606 72 123 1.7 7.0 0.00 0.00 0.00 57 1008.1
20260506163111 72 158 1.7 13.9 0.00 0.00 0.00 56 1008.1
20260506161601 72 9 0.9 8.7 0.00 0.00 0.00 58 1008.7
20260506160051 72 337 1.7 7.0 0.00 0.00 0.00 59 1008.8
20260506154608 71 153 1.7 7.0 0.00 0.00 0.00 60 1009.2
20260506153059 71 167 1.7 8.7 0.00 0.00 0.00 62 1009.3
20260506151557 70 267 0.9 7.0 0.00 0.00 0.00 64 1009.7
20260506150047 70 250 1.7 7.8 0.00 0.00 0.00 63 1009.9
20260506144549 70 150 0.9 7.0 0.00 0.00 0.00 65 1009.7
20260506143103 69 211 1.7 7.8 0.00 0.00 0.00 67 1009.6
20260506141553 68 227 1.7 7.8 0.00 0.00 0.00 70 1009.6
20260506140058 67 160 1.7 6.1 0.00 0.00 0.00 69 1009.8
20260506134553 67 240 0.9 7.8 0.00 0.01 0.00 70 1010.0
20260506133055 66 137 1.7 6.1 0.00 0.01 0.00 71 1010.3
20260506131551 66 232 0.0 9.6 0.00 0.01 0.00 73 1010.1
20260506130051 66 98 0.9 5.2 0.00 0.01 0.00 72 1010.2
20260506124549 65 222 1.7 6.1 0.00 0.01 0.00 74 1010.1
20260506123049 64 229 0.9 5.2 0.00 0.01 0.00 74 1010.4
20260506121551 63 292 0.9 6.1 0.00 0.01 0.00 76 1010.0
20260506120057 63 26 1.7 5.2 0.00 0.01 0.00 75 1010.5
20260506114558 63 133 0.9 4.3 0.00 0.01 0.00 76 1010.4
20260506113053 62 0 0.9 6.1 0.00 0.01 0.00 77 1010.8
20260506111548 62 287 0.9 2.6 0.00 0.01 0.00 78 1010.6
20260506110055 61 247 0.9 4.3 0.00 0.01 0.00 78 1010.7
20260506104550 61 182 0.9 2.6 0.00 0.01 0.00 78 1010.6
20260506103049 61 310 0.9 4.3 0.00 0.01 0.00 77 1010.7